Helicity
23 20 10 -3 -4 -12 -22 -26 -26 -19 -13 -7 -11 -18 -18 -18 -9 7 25 9 11 15 9 10 26 41 64 77 84 82 104 68 64 78 73 72 75 77 91 126 161 161 112 66 128
19 16 10 1 -3 -9 -9 -10 -8 -14 -12 -9 -8 -12 -10 -5 18 22 5 5 -6 -11 6 36 37 34 63 67 78 97 91 57 67 66 61 61 71 74 101 118 142 170 164 159 232
18 12 12 7 1 -9 -8 -1 -3 -7 -9 -11 -8 -8 -10 -3 26 13 -9 -12 -24 -13 -15 -12 -12 6 40 48 54 58 68 60 54 54 57 64 75 92 104 104 116 146 187 211 225
24 22 18 16 -0 -8 -6 -6 -6 -7 -6 -8 -4 -6 -15 8 37 8 -10 -21 -37 -17 -23 -18 -12 2 14 19 10 38 30 33 39 31 40 47 51 63 103 84 72 76 195 225 198
28 25 26 15 -0 -1 -6 -9 -5 -5 -4 -4 -5 -6 6 27 11 -0 -5 -12 -7 -12 -5 -10 -2 -7 4 14 13 12 7 14 20 17 32 46 51 59 67 32 139 129 183 184 165
31 28 20 8 6 -0 -4 3 -1 -8 12 -6 -3 -0 15 36 9 9 2 -2 4 -7 -9 -5 -12 -18 4 -4 -2 -6 -5 -6 -7 -9 27 39 67 71 45 58 117 174 162 146 146
20 19 23 14 14 17 8 16 10 27 23 -7 -2 13 25 16 4 2 11 2 -0 -5 -12 -12 -20 -16 -8 -11 -16 -8 -7 -3 2 11 38 60 31 30 61 72 86 122 118 121 109
19 25 30 22 26 34 15 27 22 30 24 1 7 19 12 9 10 11 15 4 11 1 5 5 4 23 4 2 7 7 21 14 23 28 45 46 57 53 46 64 97 75 114 136 104
31 36 34 30 31 32 32 33 26 7 5 2 15 6 -4 -3 1 6 17 1 10 10 19 24 33 36 28 16 28 29 18 22 15 73 36 71 100 73 63 24 71 78 108 133 122
42 40 40 39 30 33 43 22 49 34 22 23 7 -0 -12 -14 -22 13 16 19 17 17 32 39 53 46 39 40 9 10 26 31 38 59 60 98 137 87 74 32 48 50 92 137 137
41 45 46 41 33 28 36 36 49 34 69 29 14 2 -10 -23 -3 13 28 16 23 36 47 44 69 44 39 43 49 57 48 41 47 70 14 84 54 54 26 33 25 23 46 99 109
45 36 44 39 25 18 23 45 37 34 32 41 24 11 -1 -2 1 22 54 38 38 52 49 65 57 47 64 62 66 66 56 31 36 89 28 54 42 28 33 13 7 16 13 22 104
48 35 41 35 -4 24 28 28 21 29 41 39 32 18 1 12 19 16 43 33 61 74 76 60 66 64 57 73 73 68 77 66 61 43 90 34 51 50 40 28 24 48 26 41 124
48 34 37 37 37 11 25 7 11 16 60 37 41 40 28 25 25 24 21 46 72 77 74 72 53 57 74 76 90 61 99 91 80 63 63 61 43 50 70 67 46 41 47 36 84
41 27 33 28 22 33 15 4 1 24 67 27 31 24 34 41 38 38 38 57 91 95 94 67 83 78 73 76 87 78 83 83 125 115 93 88 110 62 104 113 57 57 33 37 40
32 27 23 28 31 21 17 20 29 77 58 44 30 35 54 53 59 52 61 113 102 107 124 112 101 94 91 89 79 76 99 130 126 92 83 92 136 95 168 133 83 101 78 73 52
26 23 28 20 27 20 26 45 78 87 48 62 61 66 58 55 54 79 98 128 113 103 84 94 99 97 105 102 95 109 106 55 75 97 62 158 178 116 170 164 174 164 87 83 74
15 18 34 20 25 34 46 82 72 55 56 56 47 51 56 74 63 78 95 97 93 129 133 112 98 80 104 112 103 115 125 99 72 101 178 213 138 148 221 234 297 179 90 116 139
19 24 32 33 31 46 80 98 54 55 64 74 47 59 64 75 70 74 67 82 71 72 93 107 90 126 166 161 141 116 143 163 211 210 212 112 175 202 297 356 337 274 276 251 220
28 33 43 33 35 64 88 54 69 77 72 64 64 89 83 72 78 79 75 71 74 81 101 108 139 158 171 189 196 193 215 229 239 170 134 155 219 269 346 363 326 325 254 221 239
34 53 34 27 39 95 79 62 69 70 73 81 85 99 95 97 101 99 95 94 123 121 155 146 176 172 202 155 161 255 287 296 293 333 243 221 237 293 345 372 335 292 304 275 241
30 57 29 40 83 85 92 83 80 78 80 89 92 103 108 105 92 92 111 128 132 139 137 174 192 208 174 230 252 263 231 284 333 280 397 437 360 321 293 320 345 317 282 151 236
34 28 31 44 90 96 76 82 83 88 86 96 103 91 102 96 106 98 123 152 151 159 154 140 216 243 217 226 228 245 262 340 396 415 438 412 393 269 294 348 347 367 338 309 172
42 65 60 69 67 81 90 79 77 72 75 93 103 117 127 121 122 156 153 145 160 180 207 222 320 335 301 242 293 320 305 317 369 454 410 464 277 287 317 351 373 306 219 194 228
43 42 32 67 70 67 67 83 86 95 100 101 112 108 120 132 128 133 150 191 190 177 239 266 293 305 298 276 314 291 291 318 344 279 315 224 264 233 234 242 218 212 185 217 177
27 44 50 52 57 67 82 100 108 117 117 126 124 147 136 153 147 159 177 179 166 259 258 303 340 342 354 253 230 212 246 259 253 222 254 204 186 285 330 306 260 217 172 119 83
34 50 58 80 93 106 134 149 177 148 139 156 160 134 139 148 172 154 172 199 219 261 246 319 321 311 254 244 220 306 198 163 272 262 215 193 296 318 274 226 243 182 70 35 69
Wind_Speed
32 34 37 38 40 41 39 38 38 41 43 44 44 44 43 39 37 42 42 43 44 50 43 37 32 29 30 30 30 28 35 36 36 36 34 31 31 36 35 31 31 32 31 33 8
35 37 40 40 41 40 39 38 39 40 42 42 41 40 39 35 32 43 43 48 46 42 36 34 31 31 32 31 32 29 34 33 33 34 36 37 36 37 35 32 32 35 37 20 4
37 39 41 42 41 39 40 40 39 39 38 36 37 38 37 33 29 40 46 46 43 39 34 33 32 31 32 32 33 30 33 32 33 35 37 38 37 36 31 29 25 23 21 7 3
40 42 43 43 41 41 42 41 39 33 34 33 34 37 34 32 34 34 48 44 41 37 35 33 32 31 31 32 32 32 31 33 34 35 37 34 40 35 21 19 36 24 9 6 7
43 45 46 44 43 42 42 38 36 32 34 32 31 32 30 31 32 37 45 41 36 36 34 33 32 31 32 32 32 32 34 35 35 37 35 38 27 26 12 8 30 22 7 4 7
45 47 48 46 44 43 38 40 35 29 38 30 25 29 28 27 32 40 41 37 38 36 35 35 33 33 33 33 33 33 34 37 37 42 41 46 40 46 36 37 10 10 3 4 7
47 49 49 48 47 46 40 42 37 39 39 23 25 27 28 26 32 41 39 33 35 34 33 34 34 35 34 32 34 34 36 39 40 44 47 52 47 37 46 36 24 12 8 5 8
48 50 51 50 47 47 43 45 38 37 30 25 26 28 26 27 30 39 38 31 32 32 32 33 34 34 36 34 36 38 38 45 45 46 46 53 50 49 56 42 31 18 14 8 8
49 50 50 50 48 47 45 43 33 37 24 25 27 27 25 26 28 36 36 30 28 29 31 32 33 34 37 38 38 43 45 48 50 50 54 53 58 55 61 56 36 28 16 12 10
49 49 50 50 47 46 43 34 30 36 29 27 27 27 26 26 24 26 35 34 30 29 30 33 35 36 40 42 46 47 48 49 54 54 56 61 47 68 64 55 44 29 20 10 8
49 49 50 48 45 43 35 30 30 31 32 27 26 24 27 27 26 29 36 31 29 31 31 36 35 40 37 39 38 40 46 53 53 51 70 60 66 63 56 59 59 52 21 10 3
49 49 49 47 43 41 33 30 30 29 31 29 26 25 26 29 28 31 39 28 28 30 34 37 39 32 34 37 39 42 49 54 53 53 70 62 67 47 50 55 57 58 41 21 14
50 49 49 48 39 37 34 31 32 33 32 32 28 25 24 29 27 29 35 30 32 33 38 38 35 32 36 38 44 44 45 51 59 70 50 62 45 45 43 50 57 57 47 29 16
50 49 49 46 32 35 34 34 34 33 35 31 28 27 26 27 26 29 32 30 33 34 36 37 32 35 38 40 41 49 39 52 60 68 59 55 54 42 44 49 57 57 52 41 20
50 48 47 41 32 35 33 35 34 32 38 31 29 29 28 25 28 30 34 32 34 35 37 41 37 39 39 40 40 45 49 55 54 55 54 48 48 44 42 47 55 55 51 47 33
51 48 44 38 36 34 33 33 32 37 35 32 31 32 31 30 31 32 33 36 31 36 40 40 36 38 38 40 41 48 51 55 50 50 55 42 50 54 45 44 49 47 48 51 45
51 46 40 36 37 35 33 31 39 33 34 34 33 35 36 36 39 39 41 40 41 49 48 44 40 37 37 40 41 48 57 63 61 60 56 43 58 48 39 42 46 46 45 49 47
49 41 38 40 37 33 31 34 35 35 34 37 39 41 40 43 41 41 39 42 37 40 48 49 52 36 37 40 46 53 46 55 70 67 66 55 55 48 37 40 42 43 44 46 47
41 39 37 45 37 32 31 35 36 34 35 40 43 44 39 36 37 42 39 40 35 29 41 48 53 39 41 42 46 47 51 47 58 59 67 54 52 44 38 40 45 49 47 48 47
41 38 38 44 37 33 34 38 37 34 38 39 44 38 44 41 43 42 41 34 37 32 36 43 61 46 44 43 45 46 41 57 55 69 73 63 64 59 39 42 45 49 47 45 47
40 39 41 43 37 37 40 39 39 36 36 39 41 46 45 49 45 47 45 42 37 36 38 41 50 56 47 48 51 50 54 50 51 52 68 79 67 45 42 40 46 46 46 45 49
41 42 45 44 39 38 39 39 38 40 39 41 41 43 47 46 50 50 51 45 34 35 48 43 52 65 60 52 48 49 52 45 60 66 60 71 76 45 41 44 45 45 46 48 52
44 42 41 40 41 42 42 42 41 42 41 41 43 41 43 48 54 49 52 46 38 41 46 40 55 74 71 59 51 55 52 52 57 62 70 74 69 41 51 48 47 51 52 52 53
44 45 44 41 38 42 48 46 45 40 43 43 46 47 50 53 48 56 57 51 42 47 44 45 58 64 74 76 63 69 60 54 56 70 74 68 84 68 61 56 53 50 52 49 48
46 43 43 48 50 48 46 47 51 52 46 45 50 49 52 61 63 61 60 59 52 50 49 53 75 69 70 70 73 77 74 68 69 71 80 88 82 72 56 51 51 51 53 51 47
46 48 46 49 46 51 51 52 54 55 53 56 58 62 58 61 61 78 73 69 71 59 59 60 82 77 89 77 78 86 78 73 76 78 79 81 86 53 45 44 50 52 51 48 45
46 45 48 51 53 56 57 60 59 63 58 54 61 72 72 73 69 70 68 68 68 69 69 69 74 82 104 81 82 92 75 69 72 67 70 77 59 41 46 50 53 51 49 47 44
Wind_Direction
288 292 307 323 327 335 352 357 359 355 357 359 355 351 346 341 350 1 351 348 343 308 317 326 338 344 342 336 341 345 327 326 327 328 333 336 333 331 332 332 325 321 323 325 111
307 309 317 330 334 346 352 350 346 347 350 356 8 7 5 7 9 356 359 336 342 343 348 334 337 338 334 337 339 337 329 333 336 336 333 330 329 329 329 327 319 317 317 332 119
315 322 324 333 339 349 350 344 347 344 357 8 19 13 17 28 38 6 351 346 353 357 3 355 343 344 338 342 339 344 335 341 339 337 335 334 333 333 334 326 323 316 315 326 255
320 326 327 335 342 345 342 343 345 7 9 15 16 14 28 37 22 26 343 350 353 7 3 360 354 348 350 346 351 345 348 345 346 349 346 350 337 341 338 339 331 329 313 286 251
326 329 330 332 334 335 334 354 0 21 7 12 26 33 43 40 38 13 342 350 8 10 359 1 353 354 354 1 2 353 348 350 354 353 1 352 2 353 328 335 338 347 350 260 253
330 331 329 325 328 323 347 343 357 24 334 15 53 39 43 43 28 357 345 0 356 3 2 2 9 9 8 5 360 355 356 352 359 351 1 353 357 344 356 356 4 350 289 230 231
328 329 326 327 323 309 339 327 347 326 318 65 56 43 35 45 24 354 342 10 357 358 7 5 9 10 13 4 2 356 346 353 356 353 359 354 1 9 352 357 2 351 326 273 255
322 324 322 321 314 312 328 302 323 327 359 45 45 38 41 37 24 356 335 9 321 326 7 10 358 11 353 4 343 342 350 345 352 355 2 357 357 355 348 355 354 357 341 306 275
319 317 315 314 309 317 318 295 319 334 25 34 29 40 48 53 44 357 331 19 339 24 11 9 359 353 348 338 336 338 339 343 349 350 349 354 345 350 341 342 345 343 328 313 299
314 309 313 311 313 317 309 316 332 320 4 11 21 29 54 57 73 341 316 336 24 22 17 3 349 340 335 336 325 336 340 345 343 346 348 343 349 337 340 352 354 352 345 327 300
311 309 313 314 318 323 334 335 339 338 338 357 11 22 30 44 46 9 332 3 25 10 6 349 352 336 350 351 353 352 346 340 346 349 336 346 338 339 351 354 354 353 1 15 357
314 312 316 315 320 330 349 347 343 338 338 343 352 6 24 23 18 358 320 12 7 2 354 346 344 358 359 355 353 351 342 339 343 348 338 342 337 357 0 1 1 357 10 24 35
315 315 317 312 331 349 359 357 337 329 336 333 336 350 9 5 14 4 352 5 353 349 340 341 348 354 352 351 346 347 346 344 340 336 355 341 356 0 5 5 0 360 5 20 43
316 318 320 320 356 354 347 344 334 338 332 332 342 345 353 358 6 10 6 10 355 346 345 343 353 349 347 346 348 343 354 345 341 338 341 350 341 356 357 356 354 356 0 4 13
317 320 325 347 358 347 350 337 335 345 327 338 338 339 342 356 358 358 359 1 344 340 339 332 339 340 340 343 347 343 343 341 343 342 342 346 344 352 355 350 353 353 357 1 11
319 324 334 348 352 353 349 344 345 328 324 333 337 334 333 338 342 346 349 351 355 339 337 334 345 341 341 342 342 339 341 341 343 342 337 346 344 343 347 348 349 355 355 355 357
322 331 347 352 343 349 348 348 326 325 334 331 332 331 327 328 329 332 331 329 324 318 322 330 332 340 344 339 340 339 338 333 332 333 332 342 334 336 347 349 348 349 350 351 352
325 339 344 347 348 353 350 337 326 329 328 331 328 325 323 325 326 329 330 323 330 327 320 320 320 337 342 338 334 333 337 332 325 326 325 332 328 339 351 351 354 355 351 351 353
344 341 339 333 345 351 343 328 327 331 333 329 328 325 328 332 332 329 328 325 331 335 323 321 319 335 335 335 334 332 327 334 326 327 324 328 329 334 343 342 344 344 347 346 348
340 338 336 333 342 342 332 323 326 334 333 330 323 328 323 327 326 328 328 333 331 333 332 327 316 326 328 331 330 326 332 324 326 321 319 322 320 320 328 329 335 337 338 342 344
338 333 334 336 339 332 320 322 326 334 334 329 325 320 320 319 320 319 320 326 326 328 329 328 319 320 326 320 319 321 318 321 322 318 316 317 320 330 328 331 328 332 334 338 338
335 327 331 334 327 329 324 327 330 328 331 327 325 321 318 320 317 315 314 319 329 328 320 323 319 312 315 323 323 319 316 314 312 314 311 313 310 326 327 327 327 328 331 335 337
333 330 336 338 326 325 326 325 327 326 327 327 325 325 325 320 317 315 316 322 323 321 321 322 315 312 315 320 321 314 314 312 312 312 305 305 310 322 323 323 324 323 325 331 333
334 326 330 339 338 329 324 322 323 329 324 323 320 321 318 315 315 315 315 318 320 317 319 318 307 303 302 309 315 310 311 310 307 305 305 297 303 305 308 311 317 319 322 327 331
334 327 330 322 324 325 325 323 320 319 323 323 319 317 317 314 313 311 314 315 317 317 315 312 304 304 301 303 305 302 301 300 296 296 296 302 302 307 307 311 316 319 321 323 324
331 328 329 325 327 323 323 321 318 319 318 316 313 314 315 311 310 307 310 310 308 312 308 309 303 306 303 303 301 298 298 296 295 295 294 298 300 309 311 316 317 320 322 321 320
339 337 329 324 321 318 317 316 317 317 317 318 316 313 310 310 310 308 306 305 304 304 304 304 304 305 302 308 307 301 299 297 301 303 303 300 306 313 315 317 319 321 322 321 321